Weather History for Eagle, AK

Change the Weather History Date:

Saturday, June 8, 2013

  Actual Average (PABN) Record (PABN)
Temperature  
Mean Temperature 52 °F -  
Max Temperature 73 °F 57 °F 73 °F (1999)
Min Temperature 32 °F 47 °F 42 °F (1997)
Degree Days  
Heating Degree Days 12    
Growing Degree Days 2 (Base 50)    
Moisture  
Dew Point 31 °F    
Average Humidity 40    
Maximum Humidity 82    
Minimum Humidity 20    
Precipitation  
Precipitation 0.00 in - - ()
Sea Level Pressure  
Sea Level Pressure 29.98 in    
Wind  
Wind Speed 2 mph (NW)    
Max Wind Speed 10 mph    
Max Gust Speed 18 mph    
Visibility 10 miles    
Events      
Averages and records for this station are not official NWS values.
T = Trace of Precipitation, MM = Missing Value Source: NWS Daily Summary

Daily Weather History Graph

Daily Weather History Graph

Search for Another Location

Airport:

Trip Planner

Search our weather history database for the weather conditions in past years. The results will help you decide how hot, cold, wet, or windy it might be!

Date:

Astronomy

Jun. 08, 2013 Rise Set
Actual Time 2:48 AM AKDT 12:01 AM AKDT
Civil Twilight Sun does not rise Sun does not rise
Nautical Twilight Sun does not rise Sun does not rise
Astronomical Twilight Sun does not rise Sun does not rise
Moon 3:53 AM AKDT (6/8) 11:16 PM AKDT (6/8)
Length of Visible Light 24h 00m
Length of Day
21h 13m
Waxing Crescent, 0% of the Moon is Illuminated
Jun 8
Waxing Crescent
Jun 16
First Quarter
Jun 23
Full
Jun 29
Last Quarter
Jul 7
New

Hourly Weather History & Observations

Time (AKDT) Temp. Dew Point Humidity Pressure Visibility Wind Dir Wind Speed Gust Speed Precip Events Conditions
12:53 AM 44.1 °F 30.0 °F 58% 29.94 in 10.0 mi Calm Calm - N/A   Partly Cloudy
1:53 AM 37.9 °F 28.0 °F 68% 29.96 in 10.0 mi Calm Calm - N/A   Clear
2:53 AM 34.0 °F 27.0 °F 75% 29.98 in 10.0 mi Calm Calm - N/A   Clear
3:53 AM 32.0 °F 27.0 °F 82% 30.00 in 10.0 mi Calm Calm - N/A   Clear
4:53 AM 37.0 °F 28.9 °F 73% 30.01 in 10.0 mi Calm Calm - N/A   Clear
5:53 AM 46.0 °F 32.0 °F 58% 30.01 in 10.0 mi Calm Calm - N/A   Clear
6:53 AM 50.0 °F 32.0 °F 50% 30.01 in 10.0 mi Calm Calm - N/A   Clear
7:53 AM 54.0 °F 33.1 °F 45% 30.01 in 10.0 mi Calm Calm - N/A   Clear
8:53 AM 59.0 °F 33.1 °F 38% 30.00 in 10.0 mi Calm Calm - N/A   Clear
9:53 AM 62.1 °F 33.1 °F 34% 30.00 in 10.0 mi Calm Calm - N/A   Clear
10:53 AM 64.9 °F 33.1 °F 31% 29.99 in 10.0 mi Variable 3.5 mph - N/A   Clear
11:53 AM 66.9 °F 30.0 °F 25% 29.99 in 10.0 mi NNW 6.9 mph - N/A   Clear
12:53 PM 69.1 °F 32.0 °F 25% 29.98 in 10.0 mi Variable 4.6 mph - N/A   Clear
1:53 PM 70.0 °F 30.9 °F 24% 29.97 in 10.0 mi Calm Calm - N/A   Clear
2:53 PM 72.0 °F 30.9 °F 22% 29.97 in 10.0 mi NE 6.9 mph - N/A   Partly Cloudy
3:53 PM 72.0 °F 30.9 °F 22% 29.96 in 10.0 mi WNW 9.2 mph - N/A   Clear
4:53 PM 73.0 °F 30.0 °F 20% 29.96 in 10.0 mi North 9.2 mph - N/A   Clear
5:53 PM 73.0 °F 28.9 °F 20% 29.95 in 10.0 mi WNW 10.4 mph 18.4 mph N/A   Clear
6:53 PM 73.0 °F 30.9 °F 21% 29.96 in 10.0 mi NW 6.9 mph - N/A   Clear
7:53 PM 72.0 °F 30.9 °F 22% 29.96 in 10.0 mi NW 6.9 mph - N/A   Clear
8:53 PM 71.1 °F 30.0 °F 22% 29.97 in 10.0 mi WNW 8.1 mph - N/A   Clear
9:53 PM 64.0 °F 32.0 °F 30% 29.99 in 10.0 mi WSW 4.6 mph - N/A   Clear
10:53 PM 57.0 °F 33.1 °F 40% 30.02 in 10.0 mi Calm Calm - N/A   Partly Cloudy
11:53 PM 50.0 °F 33.1 °F 52% 30.04 in 10.0 mi Calm Calm - N/A   Clear